| DS18B20 | SHTC3 | PZEM-004T | WiFi | ||||||||
|---|---|---|---|---|---|---|---|---|---|---|---|
| ID | Date d/m/Y & Time | data1 สูง | data2 ต่ำ | data3 นอก | temp pcb | hum pcb | Volt | Amp | Watt | rssi | Time |
| 14669 | 21/08/2026 13:52:13 | 35.2  | 33.0  | 34.4  | 35.7  | 61.1  | 232.4  | 0.04  | 4.5  | -76  | 13:52 |
| 14668 | 21/08/2026 13:47:30 | 35.1  | 33.0  | 35.4  | 35.7  | 61.1  | 232.1  | 0.04  | 4.5  | -78  | 13:47 |
| 14667 | 21/08/2026 13:42:46 | 35.1  | 32.9  | 35.9  | 35.8  | 61.2  | 232.4  | 0.04  | 4.5  | -77  | 13:42 |
| 14666 | 21/08/2026 13:38:03 | 35.1  | 32.9  | 35.6  | 35.7  | 61.2  | 231.9  | 0.04  | 4.5  | -79  | 13:38 |
| 14665 | 21/08/2026 13:33:19 | 35.1  | 32.8  | 35.4  | 35.5  | 61.2  | 231.9  | 0.04  | 4.6  | -78  | 13:33 |
| 14664 | 21/08/2026 13:28:36 | 35.0  | 32.8  | 34.9  | 35.6  | 61.2  | 231.0  | 0.04  | 4.5  | -77  | 13:28 |
| 14663 | 21/08/2026 13:23:52 | 34.9  | 32.8  | 34.9  | 35.5  | 61.3  | 232.0  | 0.04  | 4.5  | -77  | 13:23 |
| 14662 | 21/08/2026 13:19:09 | 34.9  | 32.7  | 35.1  | 35.5  | 61.3  | 232.0  | 0.04  | 4.5  | -78  | 13:19 |
| 14661 | 21/08/2026 13:14:26 | 34.9  | 32.6  | 35.1  | 35.6  | 61.3  | 232.1  | 0.04  | 4.6  | -78  | 13:14 |
| 14660 | 21/08/2026 13:09:40 | 34.9  | 32.6  | 35.5  | 35.3  | 61.1  | 231.8  | 0.04  | 4.5  | -78  | 13:09 |
| 14659 | 21/08/2026 13:04:56 | 34.8  | 32.6  | 35.5  | 35.2  | 61.2  | 231.0  | 0.04  | 4.5  | -79  | 13:04 |
| 14658 | 21/08/2026 13:00:12 | 34.7  | 32.5  | 35.7  | 35.3  | 61.2  | 231.1  | 0.04  | 4.5  | -76  | 13:00 |
| 14657 | 21/08/2026 12:55:29 | 34.6  | 32.4  | 35.4  | 35.3  | 61.3  | 232.5  | 0.04  | 4.6  | -77  | 12:55 |
| 14656 | 21/08/2026 12:50:46 | 34.5  | 32.4  | 35.2  | 35.1  | 61.4  | 232.4  | 0.04  | 4.5  | -78  | 12:50 |
| 14655 | 21/08/2026 12:46:02 | 34.4  | 32.3  | 35.2  | 35.0  | 61.4  | 232.6  | 0.04  | 4.5  | -77  | 12:46 |
| 14654 | 21/08/2026 12:41:18 | 34.3  | 32.2  | 34.9  | 34.9  | 61.5  | 232.5  | 0.04  | 4.5  | -77  | 12:41 |
| 14653 | 21/08/2026 12:36:35 | 34.2  | 32.2  | 34.4  | 35.1  | 61.6  | 232.1  | 0.04  | 4.5  | -79  | 12:36 |
| 14652 | 21/08/2026 12:31:52 | 34.2  | 32.1  | 34.7  | 34.9  | 61.5  | 229.1  | 0.04  | 4.6  | -76  | 12:31 |
| 14651 | 21/08/2026 12:27:08 | 34.2  | 32.1  | 34.5  | 35.1  | 61.3  | 231.5  | 0.04  | 4.5  | -77  | 12:27 |
| 14650 | 21/08/2026 12:22:25 | 34.3  | 32.1  | 34.5  | 35.1  | 61.3  | 232.1  | 0.04  | 4.5  | -75  | 12:22 |
| 14649 | 21/08/2026 12:17:42 | 34.3  | 32.0  | 34.5  | 34.6  | 61.2  | 231.6  | 0.04  | 4.6  | -78  | 12:17 |
| 14648 | 21/08/2026 12:08:01 | 34.2  | 31.9  | 34.5  | 34.8  | 61.1  | 232.6  | 0.04  | 4.5  | -78  | 12:08 |
| 14647 | 21/08/2026 12:03:18 | 34.2  | 31.8  | 34.5  | 34.6  | 61.0  | 233.5  | 0.04  | 4.6  | -77  | 12:03 |
| 14646 | 21/08/2026 11:58:34 | 34.1  | 31.8  | 34.9  | 34.6  | 60.9  | 233.6  | 0.04  | 4.6  | -78  | 11:58 |